When you browse on this site, cookies collect data to enhance your experience and personalize the content and advertising you see.
Visit our Privacy Policy to learn more. By continuing to use the site, you agree to this use of cookies and data.
  • In Denmark
  • List of Countries
  • For 7 days
  • Water Temperature
  • Satellite Maps
  • Weather Map
  • Weather Widgets
  • user-avatar
    Login

    Hourly Weather Brisbane

    Today, 19 January, Saturday

    Time Temperature Precipitation Wind Pressure Humidity
    00:00 +24°C° 0 mm 2 mps 761 mmHg 81%
    01:00 +23°C° 0 mm 2 mps 761 mmHg 83%
    02:00 +23°C° 0 mm 2 mps 761 mmHg 85%
    03:00 +23°C° 0 mm 1 mps 761 mmHg 87%
    04:00 +21°C° 0 mm 2 mps 760 mmHg 88%
    05:00 +23°C° 0 mm 2 mps 761 mmHg 83%
    06:00 +24°C° 0 mm 2 mps 761 mmHg 79%
    07:00 +25°C° 0 mm 2 mps 761 mmHg 74%
    08:00 +28°C° 0 mm 2 mps 761 mmHg 63%
    09:00 +30°C° 0 mm 2 mps 761 mmHg 52%
    10:00 +34°C° 0 mm 2 mps 761 mmHg 41%
    11:00 +35°C° 0 mm 2 mps 760 mmHg 40%
    12:00 +35°C° 0 mm 3 mps 760 mmHg 40%
    13:00 +36°C° 0 mm 4 mps 759 mmHg 39%
    14:00 +35°C° 0 mm 4 mps 759 mmHg 43%
    15:00 +34°C° 0 mm 4 mps 759 mmHg 47%
    16:00 +33°C° 0 mm 4 mps 758 mmHg 51%
    17:00 +30°C° 0 mm 4 mps 758 mmHg 58%
    18:00 +29°C° 0 mm 4 mps 759 mmHg 64%
    19:00 +27°C° 0 mm 3 mps 759 mmHg 71%
    20:00 +26°C° 0 mm 3 mps 760 mmHg 76%
    21:00 +25°C° 0 mm 2 mps 760 mmHg 81%
    22:00 +24°C° 0 mm 1 mps 761 mmHg 85%
    23:00 +24°C° 0 mm 1 mps 761 mmHg 87%

    Tomorrow, 20 January, Sunday

    Time Temperature Precipitation Wind Pressure Humidity
    00:00 +24°C° 0 mm 1 mps 761 mmHg 88%
    01:00 +21°C° 0 mm 0 mps 761 mmHg 90%
    02:00 +21°C° 0 mm 0 mps 761 mmHg 90%
    03:00 +23°C° 0 mm 1 mps 761 mmHg 91%
    04:00 +22°C° 0 mm 1 mps 761 mmHg 92%
    05:00 +24°C° 0 mm 1 mps 761 mmHg 86%
    06:00 +25°C° 0 mm 1 mps 762 mmHg 81%
    07:00 +26°C° 0 mm 1 mps 762 mmHg 75%
    08:00 +28°C° 0 mm 2 mps 762 mmHg 66%
    09:00 +30°C° 0 mm 2 mps 762 mmHg 56%
    10:00 +34°C° 0 mm 3 mps 762 mmHg 47%
    11:00 +34°C° 0 mm 3 mps 761 mmHg 45%
    12:00 +35°C° 0 mm 4 mps 761 mmHg 43%
    13:00 +35°C° 0 mm 4 mps 760 mmHg 42%
    14:00 +35°C° 0 mm 4 mps 760 mmHg 44%
    15:00 +34°C° 0 mm 4 mps 760 mmHg 46%
    16:00 +33°C° 0 mm 4 mps 759 mmHg 49%
    17:00 +30°C° 0 mm 4 mps 759 mmHg 56%
    18:00 +29°C° 0 mm 3 mps 760 mmHg 63%
    19:00 +27°C° 0 mm 3 mps 760 mmHg 71%
    20:00 +26°C° 0 mm 2 mps 761 mmHg 75%
    21:00 +26°C° 0 mm 2 mps 761 mmHg 79%
    22:00 +25°C° 0 mm 1 mps 762 mmHg 84%
    23:00 +25°C° 0 mm 1 mps 762 mmHg 85%

    Day after tomorrow, 21 January, Monday

    Time Temperature Precipitation Wind Pressure Humidity
    00:00 +25°C° 0 mm 1 mps 761 mmHg 86%
    01:00 +24°C° 0 mm 1 mps 761 mmHg 87%
    02:00 +24°C° 0 mm 1 mps 761 mmHg 87%
    03:00 +24°C° 0 mm 1 mps 761 mmHg 87%
    04:00 +24°C° 0 mm 1 mps 761 mmHg 87%
    05:00 +25°C° 0 mm 1 mps 761 mmHg 82%
    06:00 +26°C° 0 mm 1 mps 761 mmHg 77%
    07:00 +27°C° 0 mm 2 mps 761 mmHg 72%
    08:00 +29°C° 0 mm 2 mps 761 mmHg 64%
    09:00 +31°C° 0 mm 3 mps 761 mmHg 55%
    10:00 +34°C° 0 mm 3 mps 761 mmHg 46%
    11:00 +34°C° 0 mm 3 mps 761 mmHg 45%
    12:00 +35°C° 0 mm 4 mps 760 mmHg 44%
    13:00 +35°C° 0 mm 4 mps 760 mmHg 42%
    14:00 +34°C° 0 mm 4 mps 759 mmHg 45%
    15:00 +33°C° 0 mm 4 mps 759 mmHg 48%
    16:00 +33°C° 0 mm 4 mps 759 mmHg 51%
    17:00 +30°C° 0 mm 4 mps 759 mmHg 58%
    18:00 +29°C° 0 mm 3 mps 760 mmHg 66%
    19:00 +27°C° 0 mm 3 mps 760 mmHg 73%
    20:00 +26°C° 0 mm 3 mps 761 mmHg 76%
    21:00 +26°C° 0 mm 2 mps 762 mmHg 79%
    22:00 +25°C° 0 mm 2 mps 762 mmHg 83%
    23:00 +25°C° 0 mm 2 mps 762 mmHg 82%

    22 January, Tuesday

    Time Temperature Precipitation Wind Pressure Humidity
    00:00 +26°C° 0 mm 2 mps 761 mmHg 81%
    01:00 +26°C° 0 mm 2 mps 761 mmHg 80%
    02:00 +25°C° 0 mm 2 mps 761 mmHg 81%
    03:00 +25°C° 0 mm 2 mps 761 mmHg 83%
    04:00 +24°C° 0 mm 2 mps 761 mmHg 84%
    05:00 +25°C° 0 mm 2 mps 761 mmHg 80%
    06:00 +26°C° 0 mm 2 mps 761 mmHg 75%
    07:00 +27°C° 0 mm 2 mps 761 mmHg 71%
    08:00 +28°C° 0 mm 3 mps 761 mmHg 68%
    09:00 +28°C° 0 mm 3 mps 761 mmHg 65%
    10:00 +29°C° 0 mm 3 mps 761 mmHg 62%
    11:00 +30°C° 0 mm 3 mps 760 mmHg 57%
    12:00 +33°C° 0 mm 4 mps 760 mmHg 52%
    13:00 +34°C° 0 mm 4 mps 759 mmHg 47%
    14:00 +34°C° 0 mm 4 mps 759 mmHg 49%
    15:00 +33°C° 0 mm 4 mps 758 mmHg 51%
    16:00 +32°C° 0 mm 4 mps 758 mmHg 53%
    17:00 +30°C° 0 mm 4 mps 759 mmHg 60%
    18:00 +28°C° 0 mm 3 mps 759 mmHg 67%
    19:00 +27°C° 0 mm 3 mps 759 mmHg 74%
    20:00 +26°C° 0 mm 3 mps 760 mmHg 78%
    21:00 +26°C° 0 mm 2 mps 760 mmHg 81%
    22:00 +25°C° 0 mm 2 mps 761 mmHg 85%
    23:00 +25°C° 0 mm 2 mps 760 mmHg 85%

    23 January, Wednesday

    Time Temperature Precipitation Wind Pressure Humidity
    00:00 +25°C° 0 mm 2 mps 759 mmHg 85%
    01:00 +25°C° 0 mm 2 mps 759 mmHg 85%
    02:00 +25°C° 0 mm 2 mps 759 mmHg 85%
    03:00 +25°C° 0 mm 1 mps 758 mmHg 85%
    04:00 +25°C° 0 mm 1 mps 758 mmHg 85%
    05:00 +26°C° 0 mm 1 mps 758 mmHg 81%
    06:00 +26°C° 0 mm 1 mps 759 mmHg 77%
    07:00 +27°C° 0 mm 1 mps 759 mmHg 73%
    08:00 +29°C° 0 mm 2 mps 759 mmHg 64%
    09:00 +31°C° 0 mm 2 mps 759 mmHg 55%
    10:00 +34°C° 0 mm 2 mps 759 mmHg 46%
    11:00 +35°C° 0 mm 3 mps 758 mmHg 43%
    12:00 +36°C° 0 mm 3 mps 757 mmHg 40%
    13:00 +37°C° 0 mm 4 mps 756 mmHg 37%
    14:00 +36°C° 0 mm 4 mps 756 mmHg 39%
    15:00 +35°C° 0 mm 5 mps 755 mmHg 41%
    16:00 +34°C° 0 mm 5 mps 754 mmHg 43%
    17:00 +32°C° 0 mm 5 mps 755 mmHg 50%
    18:00 +29°C° 0 mm 4 mps 755 mmHg 57%
    19:00 +28°C° 0 mm 4 mps 755 mmHg 64%
    20:00 +27°C° 0 mm 4 mps 756 mmHg 69%
    21:00 +26°C° 0 mm 3 mps 756 mmHg 75%
    22:00 +25°C° 0 mm 3 mps 756 mmHg 80%
    23:00 +25°C° 0 mm 2 mps 756 mmHg 82%

    24 January, Thursday

    Time Temperature Precipitation Wind Pressure Humidity
    00:00 +24°C° 0 mm 2 mps 756 mmHg 85%
    01:00 +24°C° 0 mm 2 mps 756 mmHg 87%
    02:00 +24°C° 0 mm 2 mps 756 mmHg 87%
    03:00 +24°C° 0 mm 2 mps 757 mmHg 87%
    04:00 +24°C° 0 mm 2 mps 757 mmHg 87%
    05:00 +25°C° 0 mm 1 mps 757 mmHg 82%
    06:00 +26°C° 0 mm 1 mps 758 mmHg 77%
    07:00 +27°C° 0 mm 1 mps 759 mmHg 72%
    08:00 +29°C° 0 mm 1 mps 758 mmHg 63%
    09:00 +31°C° 0 mm 2 mps 758 mmHg 55%
    10:00 +34°C° 0 mm 2 mps 758 mmHg 46%
    11:00 +34°C° 0 mm 3 mps 758 mmHg 46%
    12:00 +35°C° 0 mm 3 mps 757 mmHg 47%
    13:00 +35°C° 0 mm 4 mps 757 mmHg 47%
    14:00 +34°C° 0.4 mm 4 mps 757 mmHg 51%
    15:00 +33°C° 0.4 mm 4 mps 757 mmHg 55%
    16:00 +33°C° 0.4 mm 4 mps 757 mmHg 60%
    17:00 +32°C° 0.2 mm 5 mps 757 mmHg 64%
    18:00 +29°C° 0.2 mm 5 mps 758 mmHg 67%
    19:00 +28°C° 0.2 mm 5 mps 758 mmHg 71%
    20:00 +27°C° 0 mm 5 mps 759 mmHg 72%
    21:00 +27°C° 0 mm 5 mps 759 mmHg 74%
    22:00 +26°C° 0 mm 4 mps 760 mmHg 75%
    23:00 +26°C° 0 mm 4 mps 759 mmHg 76%
    Show more